NETSAT-4

Last updated on Tue Jul 01 2025 00:03:44 GMT+0000 (Coordinated Universal Time)

1 46504U 20068U 25181.46266471 .00008464 00000+0 28662-3 0 9996 2 46504 97.8460 160.4775 0008890 122.4509 237.7592 15.30822650261740
UTC large
Height (km)
Speed (km/s)
/
Latitude / Longitude
Inclination (degrees)
Orbital Period (minutes)
Azimuth
Elevation
Range (km)
Doppler Factor

Next 0 passes for location: London (51.5072 / 0.1276)

Sorry there are no passes over London.